| time (UTC) | temp C | wind direction | speed KPH | gust KPH | rain 1hr cm | rain 24hr cm | rain mn cm | humidity % | barometer mb |
| 20260507144616 | 13 | 229 | 3.2 | 14.5 | 0.00 | 0.00 | 0.00 | 59 | 1014.5 |
| 20260507143616 | 12 | 244 | 4.8 | 11.3 | 0.00 | 0.00 | 0.00 | 61 | 1014.5 |
| 20260507142615 | 12 | 234 | 3.2 | 14.5 | 0.00 | 0.00 | 0.00 | 62 | 1014.6 |
| 20260507141615 | 11 | 211 | 6.4 | 14.5 | 0.00 | 0.00 | 0.00 | 64 | 1014.6 |
| 20260507140615 | 11 | 221 | 14.5 | 14.5 | 0.00 | 0.00 | 0.00 | 65 | 1014.7 |
| 20260507135615 | 11 | 214 | 4.8 | 12.9 | 0.00 | 0.00 | 0.00 | 68 | 1014.8 |
| 20260507134615 | 10 | 215 | 3.2 | 11.3 | 0.00 | 0.00 | 0.00 | 70 | 1014.8 |
| 20260507133615 | 10 | 209 | 4.8 | 17.7 | 0.00 | 0.00 | 0.00 | 70 | 1014.8 |
| 20260507132615 | 9 | 265 | 4.8 | 19.3 | 0.00 | 0.00 | 0.00 | 72 | 1014.7 |
| 20260507131615 | 8 | 254 | 4.8 | 17.7 | 0.00 | 0.00 | 0.00 | 73 | 1014.8 |
| 20260507130615 | 8 | 208 | 4.8 | 16.1 | 0.00 | 0.00 | 0.00 | 74 | 1015.0 |
| 20260507125615 | 7 | 180 | 6.4 | 14.5 | 0.00 | 0.00 | 0.00 | 76 | 1015.1 |
| 20260507124615 | 7 | 212 | 4.8 | 14.5 | 0.00 | 0.00 | 0.00 | 76 | 1015.0 |
| 20260507123615 | 7 | 227 | 6.4 | 9.7 | 0.00 | 0.00 | 0.00 | 77 | 1015.0 |
| 20260507122615 | 6 | 234 | 3.2 | 12.9 | 0.00 | 0.00 | 0.00 | 77 | 1015.2 |
| 20260507121615 | 6 | 212 | 4.8 | 11.3 | 0.00 | 0.00 | 0.00 | 77 | 1015.2 |
| 20260507120615 | 6 | 216 | 3.2 | 9.7 | 0.00 | 0.00 | 0.00 | 77 | 1015.2 |
| 20260507115615 | 6 | 208 | 4.8 | 9.7 | 0.00 | 0.00 | 0.00 | 77 | 1015.0 |
| 20260507114615 | 6 | 199 | 8.0 | 9.7 | 0.00 | 0.00 | 0.00 | 77 | 1015.1 |
| 20260507113615 | 6 | 241 | 4.8 | 11.3 | 0.00 | 0.00 | 0.00 | 76 | 1015.1 |
| 20260507112615 | 6 | 227 | 3.2 | 8.0 | 0.00 | 0.00 | 0.00 | 76 | 1015.1 |
| 20260507111615 | 6 | 237 | 3.2 | 12.9 | 0.00 | 0.00 | 0.00 | 75 | 1015.0 |
| 20260507110615 | 6 | 254 | 3.2 | 8.0 | 0.00 | 0.00 | 0.00 | 75 | 1014.9 |
| 20260507105615 | 6 | 220 | 6.4 | 14.5 | 0.00 | 0.00 | 0.00 | 74 | 1014.8 |
| 20260507104615 | 6 | 203 | 4.8 | 16.1 | 0.00 | 0.00 | 0.00 | 74 | 1014.7 |
| 20260507103615 | 6 | 217 | 3.2 | 11.3 | 0.00 | 0.00 | 0.00 | 74 | 1014.8 |
| 20260507102615 | 6 | 219 | 3.2 | 11.3 | 0.00 | 0.00 | 0.00 | 73 | 1014.9 |
| 20260507101615 | 6 | 229 | 1.6 | 9.7 | 0.00 | 0.00 | 0.00 | 73 | 1014.9 |
| 20260507100615 | 6 | 240 | 3.2 | 8.0 | 0.00 | 0.00 | 0.00 | 72 | 1014.9 |
| 20260507095615 | 6 | 195 | 1.6 | 8.0 | 0.00 | 0.00 | 0.00 | 72 | 1015.1 |
| 20260507094615 | 7 | 212 | 1.6 | 9.7 | 0.00 | 0.00 | 0.00 | 71 | 1015.1 |
| 20260507093615 | 7 | 228 | 3.2 | 8.0 | 0.00 | 0.00 | 0.00 | 71 | 1015.4 |
| 20260507092615 | 7 | 223 | 3.2 | 6.4 | 0.00 | 0.00 | 0.00 | 70 | 1015.4 |
| 20260507091615 | 7 | 234 | 4.8 | 8.0 | 0.00 | 0.00 | 0.00 | 69 | 1015.5 |
| 20260507090615 | 7 | 215 | 4.8 | 8.0 | 0.00 | 0.00 | 0.00 | 68 | 1015.6 |
| 20260507085615 | 6 | 196 | 1.6 | 6.4 | 0.00 | 0.00 | 0.00 | 67 | 1015.8 |
| 20260507084614 | 6 | 190 | 1.6 | 4.8 | 0.00 | 0.00 | 0.00 | 66 | 1015.8 |
| 20260507083615 | 7 | 190 | 1.6 | 6.4 | 0.00 | 0.00 | 0.00 | 65 | 1015.8 |
| 20260507082615 | 7 | 188 | 3.2 | 6.4 | 0.00 | 0.00 | 0.00 | 64 | 1016.0 |
| 20260507081614 | 7 | 204 | 0.0 | 4.8 | 0.00 | 0.00 | 0.00 | 62 | 1016.1 |
| 20260507080614 | 7 | 204 | 1.6 | 4.8 | 0.00 | 0.00 | 0.00 | 61 | 1016.2 |
| 20260507075615 | 7 | 202 | 1.6 | 6.4 | 0.00 | 0.00 | 0.00 | 60 | 1016.2 |
| 20260507074614 | 7 | 225 | 1.6 | 6.4 | 0.00 | 0.00 | 0.00 | 59 | 1016.3 |
| 20260507073615 | 7 | 213 | 3.2 | 4.8 | 0.00 | 0.00 | 0.00 | 58 | 1016.3 |
| 20260507072614 | 7 | 213 | 0.0 | 4.8 | 0.00 | 0.00 | 0.00 | 58 | 1016.5 |
| 20260507071614 | 7 | 213 | 3.2 | 4.8 | 0.00 | 0.00 | 0.00 | 59 | 1016.7 |
| 20260507070614 | 7 | 212 | 0.0 | 1.6 | 0.00 | 0.00 | 0.00 | 55 | 1016.8 |
| 20260507065614 | 7 | 212 | 1.6 | 3.2 | 0.00 | 0.00 | 0.00 | 55 | 1016.9 |
| 20260507064614 | 7 | 212 | 0.0 | 0.0 | 0.00 | 0.00 | 0.00 | 54 | 1017.0 |
| 20260507063614 | 7 | 212 | 0.0 | 1.6 | 0.00 | 0.00 | 0.00 | 53 | 1017.3 |
| 20260507062614 | 8 | 212 | 0.0 | 3.2 | 0.00 | 0.00 | 0.00 | 53 | 1017.3 |
| 20260507061614 | 8 | 212 | 1.6 | 4.8 | 0.00 | 0.00 | 0.00 | 52 | 1017.5 |
| 20260507060614 | 8 | 210 | 1.6 | 4.8 | 0.00 | 0.00 | 0.00 | 53 | 1017.5 |
| 20260507055614 | 7 | 287 | 0.0 | 3.2 | 0.00 | 0.00 | 0.00 | 56 | 1017.4 |
| 20260507054614 | 7 | 307 | 0.0 | 0.0 | 0.00 | 0.00 | 0.00 | 60 | 1017.4 |
| 20260507053614 | 6 | 307 | 0.0 | 0.0 | 0.00 | 0.00 | 0.00 | 59 | 1017.5 |
| 20260507052614 | 6 | 307 | 0.0 | 0.0 | 0.00 | 0.00 | 0.00 | 63 | 1017.5 |
| 20260507051614 | 6 | 307 | 0.0 | 0.0 | 0.00 | 0.00 | 0.00 | 63 | 1017.5 |
| 20260507050614 | 7 | 307 | 0.0 | 0.0 | 0.00 | 0.00 | 0.00 | 58 | 1017.6 |
| 20260507045614 | 7 | 307 | 0.0 | 0.0 | 0.00 | 0.00 | 0.00 | 56 | 1017.6 |
| 20260507044614 | 6 | 307 | 0.0 | 0.0 | 0.00 | 0.00 | 0.00 | 54 | 1017.7 |
| 20260507043614 | 7 | 307 | 0.0 | 0.0 | 0.00 | 0.00 | 0.00 | 63 | 1017.8 |
| 20260507042614 | 7 | 307 | 0.0 | 0.0 | 0.00 | 0.00 | 0.00 | 52 | 1018.0 |
| 20260507041614 | 7 | 307 | 0.0 | 0.0 | 0.00 | 0.00 | 0.00 | 57 | 1018.0 |
| 20260507040614 | 7 | 307 | 0.0 | 0.0 | 0.00 | 0.00 | 0.00 | 54 | 1018.1 |
| 20260507035614 | 7 | 307 | 0.0 | 0.0 | 0.00 | 0.00 | 0.00 | 57 | 1018.2 |
| 20260507034614 | 7 | 307 | 0.0 | 0.0 | 0.00 | 0.00 | 0.00 | 56 | 1018.2 |
| 20260507033614 | 7 | 307 | 0.0 | 0.0 | 0.00 | 0.00 | 0.00 | 54 | 1018.1 |
| 20260507032614 | 8 | 307 | 0.0 | 0.0 | 0.00 | 0.00 | 0.00 | 49 | 1018.1 |
| 20260507031614 | 8 | 307 | 0.0 | 0.0 | 0.00 | 0.00 | 0.00 | 47 | 1018.1 |
| 20260507030614 | 8 | 307 | 0.0 | 0.0 | 0.00 | 0.00 | 0.00 | 46 | 1018.2 |
| 20260507025614 | 8 | 307 | 0.0 | 0.0 | 0.00 | 0.00 | 0.00 | 46 | 1018.1 |
| 20260507024614 | 8 | 307 | 0.0 | 0.0 | 0.00 | 0.00 | 0.00 | 52 | 1018.1 |
| 20260507023614 | 9 | 307 | 0.0 | 0.0 | 0.00 | 0.00 | 0.00 | 50 | 1018.0 |
| 20260507022613 | 10 | 307 | 0.0 | 0.0 | 0.00 | 0.00 | 0.00 | 43 | 1018.0 |
| 20260507021614 | 10 | 307 | 0.0 | 0.0 | 0.00 | 0.00 | 0.00 | 41 | 1018.0 |
| 20260507020613 | 10 | 307 | 0.0 | 0.0 | 0.00 | 0.00 | 0.00 | 42 | 1017.9 |
| 20260507015613 | 11 | 307 | 0.0 | 0.0 | 0.00 | 0.00 | 0.00 | 39 | 1017.9 |
| 20260507014613 | 11 | 307 | 0.0 | 0.0 | 0.00 | 0.00 | 0.00 | 39 | 1017.9 |
| 20260507013613 | 11 | 307 | 0.0 | 0.0 | 0.00 | 0.00 | 0.00 | 38 | 1017.9 |
| 20260507012613 | 12 | 307 | 0.0 | 0.0 | 0.00 | 0.00 | 0.00 | 37 | 1017.8 |
| 20260507011613 | 13 | 307 | 0.0 | 0.0 | 0.00 | 0.00 | 0.00 | 35 | 1017.8 |
| 20260507010613 | 13 | 307 | 0.0 | 1.6 | 0.00 | 0.00 | 0.00 | 32 | 1017.8 |
| 20260507005614 | 13 | 307 | 0.0 | 4.8 | 0.00 | 0.00 | 0.00 | 33 | 1017.9 |
| 20260507004613 | 14 | 318 | 0.0 | 6.4 | 0.00 | 0.00 | 0.00 | 32 | 1017.9 |
| 20260507003613 | 14 | 292 | 0.0 | 4.8 | 0.00 | 0.00 | 0.00 | 32 | 1017.9 |
| 20260507002613 | 15 | 236 | 1.6 | 6.4 | 0.00 | 0.00 | 0.00 | 30 | 1018.1 |
| 20260507001613 | 15 | 52 | 3.2 | 3.2 | 0.00 | 0.00 | 0.00 | 30 | 1018.1 |
| 20260507000613 | 15 | 334 | 1.6 | 1.6 | 0.00 | 0.00 | 0.00 | 34 | 1018.3 |
| 20260506235613 | 15 | 344 | 0.0 | 6.4 | 0.00 | 0.00 | 0.00 | 32 | 1018.3 |
| 20260506234613 | 15 | 288 | 3.2 | 8.0 | 0.00 | 0.00 | 0.00 | 30 | 1018.5 |
| 20260506233613 | 15 | 123 | 1.6 | 6.4 | 0.00 | 0.00 | 0.00 | 31 | 1018.5 |
| 20260506232613 | 15 | 329 | 1.6 | 4.8 | 0.00 | 0.00 | 0.00 | 31 | 1018.5 |
| 20260506231613 | 15 | 360 | 3.2 | 9.7 | 0.00 | 0.00 | 0.00 | 31 | 1018.6 |
| 20260506230613 | 15 | 269 | 0.0 | 4.8 | 0.00 | 0.00 | 0.00 | 31 | 1018.6 |
| 20260506225613 | 15 | 333 | 1.6 | 8.0 | 0.00 | 0.00 | 0.00 | 32 | 1018.7 |
| 20260506224613 | 15 | 275 | 3.2 | 6.4 | 0.00 | 0.00 | 0.00 | 31 | 1018.8 |
| 20260506223613 | 15 | 348 | 0.0 | 4.8 | 0.00 | 0.00 | 0.00 | 32 | 1018.9 |
| 20260506222613 | 15 | 123 | 0.0 | 9.7 | 0.00 | 0.00 | 0.00 | 30 | 1019.1 |
| 20260506221613 | 15 | 317 | 1.6 | 14.5 | 0.00 | 0.00 | 0.00 | 30 | 1019.3 |
| 20260506220613 | 15 | 306 | 1.6 | 9.7 | 0.00 | 0.00 | 0.00 | 31 | 1019.3 |
| 20260506215613 | 16 | 216 | 3.2 | 6.4 | 0.00 | 0.00 | 0.00 | 35 | 1019.4 |
| 20260506214613 | 16 | 138 | 3.2 | 6.4 | 0.00 | 0.00 | 0.00 | 32 | 1019.5 |
| 20260506213613 | 15 | 342 | 1.6 | 8.0 | 0.00 | 0.00 | 0.00 | 33 | 1019.5 |
| 20260506212613 | 15 | 341 | 1.6 | 12.9 | 0.00 | 0.00 | 0.00 | 31 | 1019.5 |
| 20260506211613 | 16 | 290 | 1.6 | 8.0 | 0.00 | 0.00 | 0.00 | 31 | 1019.6 |
| 20260506210613 | 15 | 205 | 3.2 | 8.0 | 0.00 | 0.00 | 0.00 | 34 | 1019.8 |
| 20260506205613 | 15 | 284 | 3.2 | 6.4 | 0.00 | 0.00 | 0.00 | 33 | 1019.8 |
| 20260506204613 | 15 | 110 | 1.6 | 9.7 | 0.00 | 0.00 | 0.00 | 33 | 1020.0 |
| 20260506203613 | 15 | 322 | 0.0 | 6.4 | 0.00 | 0.00 | 0.00 | 34 | 1019.9 |
| 20260506202613 | 14 | 257 | 3.2 | 6.4 | 0.00 | 0.00 | 0.00 | 33 | 1020.0 |
| 20260506201613 | 15 | 294 | 8.0 | 9.7 | 0.00 | 0.00 | 0.00 | 33 | 1020.5 |
| 20260506200612 | 15 | 318 | 1.6 | 12.9 | 0.00 | 0.00 | 0.00 | 31 | 1020.4 |
| 20260506195613 | 15 | 112 | 0.0 | 8.0 | 0.00 | 0.00 | 0.00 | 33 | 1020.4 |
| 20260506194613 | 15 | 295 | 4.8 | 12.9 | 0.00 | 0.00 | 0.00 | 38 | 1020.7 |
| 20260506193613 | 14 | 283 | 1.6 | 12.9 | 0.00 | 0.00 | 0.00 | 38 | 1020.7 |
| 20260506192613 | 14 | 276 | 1.6 | 11.3 | 0.00 | 0.00 | 0.00 | 34 | 1020.7 |
| 20260506191613 | 15 | 22 | 1.6 | 12.9 | 0.00 | 0.00 | 0.00 | 36 | 1020.6 |
| 20260506190612 | 14 | 287 | 1.6 | 9.7 | 0.00 | 0.00 | 0.00 | 38 | 1020.8 |
| 20260506185612 | 14 | 15 | 1.6 | 8.0 | 0.00 | 0.00 | 0.00 | 36 | 1020.8 |
| 20260506184612 | 14 | 279 | 0.0 | 8.0 | 0.00 | 0.00 | 0.00 | 35 | 1021.1 |
| 20260506183613 | 14 | 360 | 6.4 | 12.9 | 0.00 | 0.00 | 0.00 | 36 | 1021.1 |
| 20260506182612 | 15 | 247 | 14.5 | 14.5 | 0.00 | 0.00 | 0.00 | 41 | 1021.1 |
| 20260506181612 | 14 | 5 | 0.0 | 12.9 | 0.00 | 0.00 | 0.00 | 35 | 1021.4 |
| 20260506180612 | 13 | 263 | 4.8 | 14.5 | 0.00 | 0.00 | 0.00 | 38 | 1021.4 |
| 20260506175612 | 13 | 12 | 0.0 | 8.0 | 0.00 | 0.00 | 0.00 | 36 | 1021.6 |
| 20260506174612 | 13 | 182 | 1.6 | 11.3 | 0.00 | 0.00 | 0.00 | 44 | 1021.6 |
| 20260506173612 | 13 | 257 | 8.0 | 8.0 | 0.00 | 0.00 | 0.00 | 38 | 1021.9 |
| 20260506172612 | 13 | 43 | 1.6 | 6.4 | 0.00 | 0.00 | 0.00 | 40 | 1021.9 |
| 20260506171612 | 12 | 303 | 1.6 | 8.0 | 0.00 | 0.00 | 0.00 | 39 | 1022.2 |
| 20260506170612 | 13 | 305 | 1.6 | 6.4 | 0.00 | 0.00 | 0.00 | 43 | 1022.3 |
| 20260506165612 | 12 | 290 | 1.6 | 8.0 | 0.00 | 0.00 | 0.00 | 44 | 1022.4 |
| 20260506164612 | 12 | 292 | 1.6 | 12.9 | 0.00 | 0.00 | 0.00 | 38 | 1022.5 |
| 20260506163612 | 12 | 355 | 1.6 | 8.0 | 0.00 | 0.00 | 0.00 | 39 | 1022.8 |
| 20260506162612 | 12 | 287 | 0.0 | 9.7 | 0.00 | 0.00 | 0.00 | 41 | 1022.5 |
| 20260506161612 | 12 | 321 | 1.6 | 8.0 | 0.00 | 0.00 | 0.00 | 38 | 1022.4 |
| 20260506160612 | 12 | 5 | 3.2 | 6.4 | 0.00 | 0.00 | 0.00 | 41 | 1022.3 |
| 20260506155612 | 11 | 247 | 0.0 | 4.8 | 0.00 | 0.00 | 0.00 | 43 | 1021.9 |
| 20260506154612 | 11 | 336 | 3.2 | 19.3 | 0.00 | 0.00 | 0.00 | 40 | 1022.0 |
| 20260506153612 | 11 | 341 | 1.6 | 12.9 | 0.00 | 0.00 | 0.00 | 44 | 1021.8 |
| 20260506152612 | 11 | 306 | 1.6 | 8.0 | 0.00 | 0.00 | 0.00 | 46 | 1021.8 |
| 20260506151612 | 10 | 317 | 3.2 | 8.0 | 0.00 | 0.00 | 0.00 | 43 | 1021.9 |
| 20260506150612 | 10 | 239 | 1.6 | 4.8 | 0.00 | 0.00 | 0.00 | 46 | 1021.8 |
| 20260506145612 | 10 | 93 | 1.6 | 6.4 | 0.00 | 0.00 | 0.00 | 46 | 1022.0 |